Weather History for Fullerton, CA

Change the Weather History Date:

Saturday, December 8, 2012

  Actual Average Record
Temperature  
Mean Temperature 61 °F 56 °F  
Max Temperature 69 °F 68 °F 80 °F (2001)
Min Temperature 53 °F 45 °F 34 °F (2009)
Degree Days  
Heating Degree Days 4 9  
Month to date heating degree days 12 66  
Since 1 July heating degree days 70 230  
Cooling Degree Days 0 0  
Month to date cooling degree days 4 0  
Year to date cooling degree days 2042 1251  
Growing Degree Days 10 (Base 50)    
Moisture  
Dew Point 53 °F    
Average Humidity 76    
Maximum Humidity 93    
Minimum Humidity 59    
Precipitation  
Precipitation 0.00 in 0.05 in 0.03 in (2007)
Month to date precipitation 0.83 0.35  
Year to date precipitation 5.37 12.18  
Since 1 July precipitation 1.84 2.53  
Snow  
Snow 0.00 in - - ()
Month to date snowfall 0.0  
Year to date snowfall 0.0  
Since 1 July snowfall 0.0  
Snow Depth 0.00 in    
Sea Level Pressure  
Sea Level Pressure 29.94 in    
Wind  
Wind Speed 2 mph (ESE)    
Max Wind Speed 7 mph    
Max Gust Speed 18 mph    
Visibility 2 miles    
Events Fog    
T = Trace of Precipitation, MM = Missing Value Source: NWS Daily Summary

Daily Weather History Graph

Daily Weather History Graph

Search for Another Location

Airport:

Trip Planner

Search our weather history database for the weather conditions in past years. The results will help you decide how hot, cold, wet, or windy it might be!

Date:

Astronomy

Dec. 08, 2012 Rise Set
Actual Time 6:45 AM PST 4:43 PM PST
Civil Twilight 6:17 AM PST 5:10 PM PST
Nautical Twilight 5:46 AM PST 5:41 PM PST
Astronomical Twilight 5:16 AM PST 6:12 PM PST
Moon 1:26 AM PST (12/8) 1:05 PM PST (12/8)
Length of Visible Light 10h 53m
Length of Day
9h 58m
Waning Crescent, 27% of the Moon is Illuminated
Dec 8
Waning Crescent
Dec 13
New
Dec 19
First Quarter
Dec 28
Full
Jan 4
Last Quarter

Hourly Weather History & Observations

Time (PST) Temp. Dew Point Humidity Pressure Visibility Wind Dir Wind Speed Gust Speed Precip Events Conditions
12:53 AM 54.0 °F 48.9 °F 83% 29.92 in 2.5 mi East 3.5 mph - N/A   Haze
1:09 AM 53.6 °F 50.0 °F 88% 29.92 in 2.5 mi East 4.6 mph - N/A   Partly Cloudy
1:53 AM 55.0 °F 51.1 °F 86% 29.92 in 2.0 mi ESE 3.5 mph - N/A   Mostly Cloudy
2:53 AM 54.0 °F 50.0 °F 86% 29.92 in 2.5 mi Calm Calm - N/A   Overcast
2:58 AM 53.6 °F 50.0 °F 88% 29.93 in 3.0 mi ESE 3.5 mph - N/A   Overcast
3:40 AM 55.4 °F 51.8 °F 88% 29.93 in 2.0 mi Calm Calm - N/A   Overcast
3:49 AM 55.4 °F 51.8 °F 88% 29.93 in 1.0 mi Calm Calm - N/A   Overcast
3:53 AM 55.9 °F 53.1 °F 90% 29.93 in 0.8 mi Calm Calm - N/A   Overcast
4:53 AM 57.0 °F 54.0 °F 89% 29.93 in 0.2 mi Calm Calm - N/A Fog Fog
5:53 AM 57.0 °F 54.0 °F 89% 29.94 in 0.2 mi Calm Calm - 0.01 in Fog Fog
6:53 AM 57.0 °F 54.0 °F 89% 29.95 in 0.2 mi East 3.5 mph - N/A Fog Fog
7:53 AM 55.9 °F 53.1 °F 90% 29.97 in 1.0 mi East 5.8 mph - N/A   Overcast
8:53 AM 57.9 °F 54.0 °F 87% 29.98 in 1.8 mi East 5.8 mph - N/A   Overcast
9:08 AM 57.2 °F 53.6 °F 88% 29.98 in 2.0 mi East 4.6 mph - N/A   Overcast
9:50 AM 60.8 °F 55.4 °F 82% 29.99 in 2.0 mi East 3.5 mph - N/A   Haze
9:53 AM 60.1 °F 55.0 °F 83% 29.99 in 2.0 mi ENE 3.5 mph - N/A   Haze
10:53 AM 62.1 °F 55.0 °F 78% 29.98 in 2.5 mi Calm Calm - N/A   Haze
11:15 AM 62.6 °F 53.6 °F 72% 29.97 in 3.0 mi Calm Calm - N/A   Haze
11:53 AM 64.0 °F 54.0 °F 70% 29.95 in 3.0 mi Calm Calm - N/A   Haze
12:53 PM 66.0 °F 54.0 °F 65% 29.93 in 3.0 mi SSW 4.6 mph - N/A   Haze
1:53 PM 66.9 °F 54.0 °F 63% 29.90 in 3.0 mi Calm Calm - N/A   Haze
2:53 PM 68.0 °F 53.1 °F 59% 29.89 in 3.0 mi Calm Calm - N/A   Haze
3:53 PM 68.0 °F 53.1 °F 59% 29.90 in 3.0 mi SW 3.5 mph - N/A   Haze
4:53 PM 64.0 °F 54.0 °F 70% 29.89 in 3.0 mi SSW 5.8 mph - N/A   Haze
5:53 PM 61.0 °F 53.1 °F 75% 29.91 in 4.0 mi SSW 3.5 mph - N/A   Haze
6:53 PM 60.1 °F 53.1 °F 78% 29.92 in 3.0 mi Calm Calm - N/A   Haze
7:13 PM 59.0 °F 53.6 °F 82% 29.93 in 2.5 mi Calm Calm - N/A   Haze
7:43 PM 57.2 °F 53.6 °F 88% 29.93 in 2.5 mi Calm Calm - N/A   Haze
7:53 PM 59.0 °F 53.1 °F 81% 29.94 in 2.5 mi Calm Calm - N/A   Haze
8:00 PM 57.2 °F 53.6 °F 88% 29.94 in 2.5 mi Calm Calm - N/A   Haze
8:53 PM 57.0 °F 52.0 °F 83% 29.95 in 2.5 mi Calm Calm - N/A   Haze
9:53 PM 60.1 °F 54.0 °F 80% 29.95 in 2.5 mi Calm Calm - N/A   Haze
10:16 PM 60.8 °F 53.6 °F 77% 29.96 in 3.0 mi Calm Calm - N/A   Haze
10:26 PM 60.8 °F 53.6 °F 77% 29.96 in 2.5 mi Calm Calm - N/A   Haze
10:53 PM 60.1 °F 54.0 °F 80% 29.96 in 3.0 mi Calm Calm - N/A   Haze
11:53 PM 61.0 °F 54.0 °F 78% 29.96 in 3.0 mi Calm Calm - N/A   Haze